This is the latest recevied weather packets stored in our database for station/object K5KVN. If no packets are shown the sender has not sent any weather packets the latest 10 day(s).
| Time | Temp. | Humidity | Pressure | Rain* | Wind** | Luminosity | Snow |
|---|---|---|---|---|---|---|---|
| 1787450010 | 24.44° C | 73% | 1018.3 hPa | 0 mm | - | - | - |
| 1787449346 | 24.44° C | 72% | 1018.1 hPa | 0 mm | - | - | - |
| 1787448746 | 25° C | 70% | 1018 hPa | 0 mm | - | - | - |
| 1787448144 | 25.56° C | 69% | 1018 hPa | 0 mm | - | - | - |
| 1787447544 | 25.56° C | 68% | 1017.8 hPa | 0 mm | - | - | - |
| 1787447003 | 26.11° C | 66% | 1017.8 hPa | 0 mm | - | - | - |
| 1787446403 | 26.67° C | 66% | 1017.7 hPa | 0 mm | - | - | - |
| 1787445740 | 27.22° C | 65% | 1017.8 hPa | 0 mm | - | - | - |
| 1787445142 | 27.78° C | 64% | 1017.7 hPa | 0 mm | - | - | - |
| 1787444540 | 27.78° C | 64% | 1017.7 hPa | 0 mm | - | - | - |
| 1787443942 | 27.78° C | 63% | 1017.8 hPa | 0 mm | - | - | - |
| 1787443342 | 27.78° C | 62% | 1017.7 hPa | 0 mm | - | - | - |
| 1787442740 | 28.33° C | 63% | 1017.5 hPa | 0 mm | - | - | - |
| 1787442139 | 28.33° C | 62% | 1017.7 hPa | 0 mm | - | - | - |
| 1787441538 | 28.33° C | 63% | 1017.4 hPa | 0 mm | - | - | - |
| 1787440939 | 28.33° C | 64% | 1017.4 hPa | 0 mm | - | - | - |
| 1787440340 | 28.33° C | 64% | 1017.7 hPa | 0 mm | - | - | - |
| 1787439737 | 27.78° C | 65% | 1017.5 hPa | 0 mm | - | - | - |
| 1787439137 | 26.67° C | 67% | 1017.4 hPa | 0 mm | - | - | - |
| 1787438536 | 26.67° C | 68% | 1016.8 hPa | 0 mm | - | - | - |
| 1787437937 | 26.67° C | 68% | 1017.1 hPa | 0 mm | - | - | - |
| 1787437336 | 27.22° C | 68% | 1017.5 hPa | 0 mm | - | - | - |
| 1787436798 | 27.78° C | 67% | 1018 hPa | 0 mm | - | - | - |
| 1787436136 | 27.78° C | 66% | 1019 hPa | 0 mm | - | - | - |
| 1787435537 | 28.33° C | 67% | 1019 hPa | 0 mm | - | - | - |
* Rain latest hour (hover to see other rain measurements)
** Current wind speed in m/s (hover to see current wind gust speed)